Year,Month,Day,Hour,Minute,Value (Times are PST for temperature in C)
2015,01,25,00,00,9.00
2015,01,25,00,01,9.30
2015,01,25,00,02,9.60
2015,01,25,00,03,10.00
2015,01,25,00,04,10.30
2015,01,25,00,05,10.40
2015,01,25,00,06,10.60
2015,01,25,00,07,10.80
2015,01,25,00,08,10.90
2015,01,25,00,09,10.90
2015,01,25,00,10,11.00
2015,01,25,00,11,11.10
2015,01,25,00,12,11.20
2015,01,25,00,13,11.30
2015,01,25,00,14,11.40
2015,01,25,00,15,11.60
2015,01,25,00,16,11.60
2015,01,25,00,17,11.70
2015,01,25,00,18,11.80
2015,01,25,00,19,11.80
2015,01,25,00,20,11.80
2015,01,25,00,21,11.80
2015,01,25,00,22,11.90
2015,01,25,00,23,12.00
2015,01,25,00,24,12.10
2015,01,25,00,25,12.10
2015,01,25,00,26,12.10
2015,01,25,00,27,12.20
2015,01,25,00,28,12.20
2015,01,25,00,29,12.20
2015,01,25,00,30,12.30
2015,01,25,00,31,12.50
2015,01,25,00,32,12.60
2015,01,25,00,33,12.60
2015,01,25,00,34,12.70
2015,01,25,00,35,12.70
2015,01,25,00,36,12.70
2015,01,25,00,37,12.80
2015,01,25,00,38,12.80
2015,01,25,00,39,12.90
2015,01,25,00,40,12.90
2015,01,25,00,41,12.90
2015,01,25,00,42,12.90
2015,01,25,00,43,12.90
2015,01,25,00,44,12.90
2015,01,25,00,45,12.90
2015,01,25,00,46,12.90
2015,01,25,00,47,13.00
2015,01,25,00,48,13.00
2015,01,25,00,49,13.00
2015,01,25,00,50,13.10
2015,01,25,00,51,13.10
2015,01,25,00,52,13.20
2015,01,25,00,53,13.20
2015,01,25,00,54,13.30
2015,01,25,00,55,13.30
2015,01,25,00,56,13.30
2015,01,25,00,57,13.40
2015,01,25,00,58,13.40
2015,01,25,00,59,13.40
2015,01,25,01,00,13.40
2015,01,25,01,01,13.50
2015,01,25,01,02,13.50
2015,01,25,01,03,13.60
2015,01,25,01,04,13.70
2015,01,25,01,05,13.70
2015,01,25,01,06,13.70
2015,01,25,01,07,13.70
2015,01,25,01,08,13.70
2015,01,25,01,09,13.80
2015,01,25,01,10,13.90
2015,01,25,01,11,13.90
2015,01,25,01,12,13.90
2015,01,25,01,13,13.90
2015,01,25,01,14,13.90
2015,01,25,01,15,13.90
2015,01,25,01,16,13.90
2015,01,25,01,17,13.80
2015,01,25,01,18,13.80
2015,01,25,01,19,13.80
2015,01,25,01,20,13.80
2015,01,25,01,21,13.80
2015,01,25,01,22,13.80
2015,01,25,01,23,13.80
2015,01,25,01,24,13.80
2015,01,25,01,25,13.80
2015,01,25,01,26,13.90
2015,01,25,01,27,13.90
2015,01,25,01,28,13.90
2015,01,25,01,29,13.90
2015,01,25,01,30,13.90
2015,01,25,01,31,13.90
2015,01,25,01,32,13.90
2015,01,25,01,33,13.90
2015,01,25,01,34,13.90
2015,01,25,01,35,13.90
2015,01,25,01,36,13.90
2015,01,25,01,37,13.90
2015,01,25,01,38,13.90
2015,01,25,01,39,13.90
2015,01,25,01,40,13.80
2015,01,25,01,41,13.80
2015,01,25,01,42,13.80
2015,01,25,01,43,13.80
2015,01,25,01,44,13.80
2015,01,25,01,45,13.80
2015,01,25,01,46,13.80
2015,01,25,01,47,13.80
2015,01,25,01,48,13.80
2015,01,25,01,49,13.80
2015,01,25,01,50,13.80
2015,01,25,01,51,13.80
2015,01,25,01,52,13.80
2015,01,25,01,53,13.80
2015,01,25,01,54,13.80
2015,01,25,01,55,13.80
2015,01,25,01,56,13.80
2015,01,25,01,57,13.80
2015,01,25,01,58,13.80
2015,01,25,01,59,13.70
2015,01,25,02,00,13.80
2015,01,25,02,01,13.80
2015,01,25,02,02,13.90
2015,01,25,02,03,14.00
2015,01,25,02,04,14.00
2015,01,25,02,05,14.00
2015,01,25,02,06,14.00
2015,01,25,02,07,14.00
2015,01,25,02,08,14.00
2015,01,25,02,09,13.90
2015,01,25,02,10,13.90
2015,01,25,02,11,13.90
2015,01,25,02,12,13.90
2015,01,25,02,13,14.00
2015,01,25,02,14,14.10
2015,01,25,02,15,14.20
2015,01,25,02,16,14.20
2015,01,25,02,17,14.10
2015,01,25,02,18,14.10
2015,01,25,02,19,14.00
2015,01,25,02,20,14.00
2015,01,25,02,21,13.90
2015,01,25,02,22,13.90
2015,01,25,02,23,13.90
2015,01,25,02,24,13.90
2015,01,25,02,25,13.80
2015,01,25,02,26,13.80
2015,01,25,02,27,13.80
2015,01,25,02,28,13.80
2015,01,25,02,29,13.80
2015,01,25,02,30,13.70
2015,01,25,02,31,13.70
2015,01,25,02,32,13.70
2015,01,25,02,33,13.60
2015,01,25,02,34,13.60
2015,01,25,02,35,13.70
2015,01,25,02,36,13.70
2015,01,25,02,37,13.70
2015,01,25,02,38,13.70
2015,01,25,02,39,13.60
2015,01,25,02,40,13.60
2015,01,25,02,41,13.60
2015,01,25,02,42,13.60
2015,01,25,02,43,13.60
2015,01,25,02,44,13.60
2015,01,25,02,45,13.60
2015,01,25,02,46,13.60
2015,01,25,02,47,13.60
2015,01,25,02,48,13.60
2015,01,25,02,49,13.60
2015,01,25,02,50,13.60
2015,01,25,02,51,13.60
2015,01,25,02,52,13.60
2015,01,25,02,53,13.60
2015,01,25,02,54,13.60
2015,01,25,02,55,13.60
2015,01,25,02,56,13.60
2015,01,25,02,57,13.60
2015,01,25,02,58,13.60
2015,01,25,02,59,13.60
2015,01,25,03,00,13.60
2015,01,25,03,01,13.70
2015,01,25,03,02,13.70
2015,01,25,03,03,13.70
2015,01,25,03,04,13.80
2015,01,25,03,05,13.80
2015,01,25,03,06,13.80
2015,01,25,03,07,13.90
2015,01,25,03,08,13.90
2015,01,25,03,09,13.90
2015,01,25,03,10,13.80
2015,01,25,03,11,13.80
2015,01,25,03,12,13.80
2015,01,25,03,13,13.70
2015,01,25,03,14,13.70
2015,01,25,03,15,13.70
2015,01,25,03,16,13.70
2015,01,25,03,17,13.60
2015,01,25,03,18,13.60
2015,01,25,03,19,13.60
2015,01,25,03,20,13.60
2015,01,25,03,21,13.60
2015,01,25,03,22,13.60
2015,01,25,03,23,13.60
2015,01,25,03,24,13.60
2015,01,25,03,25,13.60
2015,01,25,03,26,13.60
2015,01,25,03,27,13.60
2015,01,25,03,28,13.60
2015,01,25,03,29,13.50
2015,01,25,03,30,13.50
2015,01,25,03,31,13.60
2015,01,25,03,32,13.60
2015,01,25,03,33,13.60
2015,01,25,03,34,13.60
2015,01,25,03,35,13.60
2015,01,25,03,36,13.60
2015,01,25,03,37,13.60
2015,01,25,03,38,13.60
2015,01,25,03,39,13.60
2015,01,25,03,40,13.60
2015,01,25,03,41,13.70
2015,01,25,03,42,13.70
2015,01,25,03,43,13.70
2015,01,25,03,44,13.70
2015,01,25,03,45,13.80
2015,01,25,03,46,13.80
2015,01,25,03,47,13.80
2015,01,25,03,48,13.80
2015,01,25,03,49,13.80
2015,01,25,03,50,13.80
2015,01,25,03,51,13.80
2015,01,25,03,52,13.80
2015,01,25,03,53,13.80
2015,01,25,03,54,13.70
2015,01,25,03,55,13.70
2015,01,25,03,56,13.70
2015,01,25,03,57,13.70
2015,01,25,03,58,13.70
2015,01,25,03,59,13.70
2015,01,25,04,00,13.60
2015,01,25,04,01,13.60
2015,01,25,04,02,13.60
2015,01,25,04,03,13.50
2015,01,25,04,04,13.50
2015,01,25,04,05,13.40
2015,01,25,04,06,13.10
2015,01,25,04,07,12.80
2015,01,25,04,08,12.40
2015,01,25,04,09,12.10
2015,01,25,04,10,11.90
2015,01,25,04,11,11.70
2015,01,25,04,12,11.50
2015,01,25,04,13,11.30
2015,01,25,04,14,11.20
2015,01,25,04,15,11.10
2015,01,25,04,16,11.10
2015,01,25,04,17,11.00
2015,01,25,04,18,10.90
2015,01,25,04,19,10.90
2015,01,25,04,20,10.80
2015,01,25,04,21,10.80
2015,01,25,04,22,10.80
2015,01,25,04,23,10.80
2015,01,25,04,24,10.70
2015,01,25,04,25,10.70
2015,01,25,04,26,10.70
2015,01,25,04,27,10.70
2015,01,25,04,28,10.60
2015,01,25,04,29,10.60
2015,01,25,04,30,10.60
2015,01,25,04,31,10.60
2015,01,25,04,32,10.60
2015,01,25,04,33,10.50
2015,01,25,04,34,10.50
2015,01,25,04,35,10.50
2015,01,25,04,36,10.50
2015,01,25,04,37,10.50
2015,01,25,04,38,10.50
2015,01,25,04,39,10.50
2015,01,25,04,40,10.40
2015,01,25,04,41,10.40
2015,01,25,04,42,10.40
2015,01,25,04,43,10.40
2015,01,25,04,44,10.40
2015,01,25,04,45,10.40
2015,01,25,04,46,10.40
2015,01,25,04,47,10.40
2015,01,25,04,48,10.40
2015,01,25,04,49,10.40
2015,01,25,04,50,10.40
2015,01,25,04,51,10.30
2015,01,25,04,52,10.30
2015,01,25,04,53,10.30
2015,01,25,04,54,10.30
2015,01,25,04,55,10.30
2015,01,25,04,56,10.30
2015,01,25,04,57,10.30
2015,01,25,04,58,10.30
2015,01,25,04,59,10.30
2015,01,25,05,00,10.30
2015,01,25,05,01,10.30
2015,01,25,05,02,10.30
2015,01,25,05,03,10.30
2015,01,25,05,04,10.30
2015,01,25,05,05,10.30
2015,01,25,05,06,10.30
2015,01,25,05,07,10.30
2015,01,25,05,08,10.30
2015,01,25,05,09,10.30
2015,01,25,05,10,10.30
2015,01,25,05,11,10.30
2015,01,25,05,12,10.30
2015,01,25,05,13,10.30
2015,01,25,05,14,10.20
2015,01,25,05,15,10.20
2015,01,25,05,16,10.20
2015,01,25,05,17,10.20
2015,01,25,05,18,10.20
2015,01,25,05,19,10.20
2015,01,25,05,20,10.20
2015,01,25,05,21,10.20
2015,01,25,05,22,10.20
2015,01,25,05,23,10.10
2015,01,25,05,24,10.10
2015,01,25,05,25,10.10
2015,01,25,05,26,10.10
2015,01,25,05,27,10.10
2015,01,25,05,28,10.10
2015,01,25,05,29,10.10
2015,01,25,05,30,10.10
2015,01,25,05,31,10.10
2015,01,25,05,32,10.10
2015,01,25,05,33,10.10
2015,01,25,05,34,10.10
2015,01,25,05,35,10.10
2015,01,25,05,36,10.10
2015,01,25,05,37,10.10
2015,01,25,05,38,10.10
2015,01,25,05,39,10.10
2015,01,25,05,40,10.10
2015,01,25,05,41,10.10
2015,01,25,05,42,10.00
2015,01,25,05,43,10.00
2015,01,25,05,44,10.00
2015,01,25,05,45,10.00
2015,01,25,05,46,10.00
2015,01,25,05,47,10.00
2015,01,25,05,48,9.90
2015,01,25,05,49,9.90
2015,01,25,05,50,9.90
2015,01,25,05,51,9.90
2015,01,25,05,52,9.90
2015,01,25,05,53,9.90
2015,01,25,05,54,9.90
2015,01,25,05,55,9.90
2015,01,25,05,56,9.90
2015,01,25,05,57,9.90
2015,01,25,05,58,9.90
2015,01,25,05,59,9.90
2015,01,25,06,00,9.90
2015,01,25,06,01,9.80
2015,01,25,06,02,9.80
2015,01,25,06,03,9.80
2015,01,25,06,04,9.80
2015,01,25,06,05,9.80
2015,01,25,06,06,9.80
2015,01,25,06,07,9.80
2015,01,25,06,08,9.80
2015,01,25,06,09,9.80
2015,01,25,06,10,9.70
2015,01,25,06,11,9.70
2015,01,25,06,12,9.70
2015,01,25,06,13,9.70
2015,01,25,06,14,9.70
2015,01,25,06,15,9.70
2015,01,25,06,16,9.70
2015,01,25,06,17,9.70
2015,01,25,06,18,9.70
2015,01,25,06,19,9.70
2015,01,25,06,20,9.70
2015,01,25,06,21,9.60
2015,01,25,06,22,9.60
2015,01,25,06,23,9.60
2015,01,25,06,24,9.60
2015,01,25,06,25,9.60
2015,01,25,06,26,9.60
2015,01,25,06,27,9.60
2015,01,25,06,28,9.60
2015,01,25,06,29,9.60
2015,01,25,06,30,9.60
2015,01,25,06,31,9.60
2015,01,25,06,32,9.60
2015,01,25,06,33,9.60
2015,01,25,06,34,9.60
2015,01,25,06,35,9.60
2015,01,25,06,36,9.50
2015,01,25,06,37,9.50
2015,01,25,06,38,9.50
2015,01,25,06,39,9.50
2015,01,25,06,40,9.50
2015,01,25,06,41,9.40
2015,01,25,06,42,9.40
2015,01,25,06,43,9.40
2015,01,25,06,44,9.40
2015,01,25,06,45,9.40
2015,01,25,06,46,9.40
2015,01,25,06,47,9.40
2015,01,25,06,48,9.40
2015,01,25,06,49,9.40
2015,01,25,06,50,9.40
2015,01,25,06,51,9.40
2015,01,25,06,52,9.30
2015,01,25,06,53,9.30
2015,01,25,06,54,9.30
2015,01,25,06,55,9.30
2015,01,25,06,56,9.30
2015,01,25,06,57,9.30
2015,01,25,06,58,9.30
2015,01,25,06,59,9.30
2015,01,25,07,00,9.30
2015,01,25,07,01,9.30
2015,01,25,07,02,9.30
2015,01,25,07,03,9.30
2015,01,25,07,04,9.20
2015,01,25,07,05,9.20
2015,01,25,07,06,9.20
2015,01,25,07,07,9.20
2015,01,25,07,08,9.20
2015,01,25,07,09,9.20
2015,01,25,07,10,9.20
2015,01,25,07,11,9.20
2015,01,25,07,12,9.20
2015,01,25,07,13,9.20
2015,01,25,07,14,9.10
2015,01,25,07,15,9.10
2015,01,25,07,16,9.10
2015,01,25,07,17,9.10
2015,01,25,07,18,9.10
2015,01,25,07,19,9.10
2015,01,25,07,20,9.00
2015,01,25,07,21,9.00
2015,01,25,07,22,9.00
2015,01,25,07,23,9.00
2015,01,25,07,24,9.00
2015,01,25,07,25,8.90
2015,01,25,07,26,8.90
2015,01,25,07,27,8.90
2015,01,25,07,28,8.90
2015,01,25,07,29,8.80
2015,01,25,07,30,8.80
2015,01,25,07,31,8.80
2015,01,25,07,32,8.80
2015,01,25,07,33,8.80
2015,01,25,07,34,8.80
2015,01,25,07,35,8.80
2015,01,25,07,36,8.70
2015,01,25,07,37,8.80
2015,01,25,07,38,8.80
2015,01,25,07,39,8.80
2015,01,25,07,40,8.80
2015,01,25,07,41,8.80
2015,01,25,07,42,8.80
2015,01,25,07,43,8.80
2015,01,25,07,44,8.80
2015,01,25,07,45,8.80
2015,01,25,07,46,8.80
2015,01,25,07,47,8.80
2015,01,25,07,48,8.80
2015,01,25,07,49,8.80
2015,01,25,07,50,8.80
2015,01,25,07,51,8.80
2015,01,25,07,52,8.80
2015,01,25,07,53,8.80
2015,01,25,07,54,8.70
2015,01,25,07,55,8.80
2015,01,25,07,56,8.80
2015,01,25,07,57,8.80
2015,01,25,07,58,8.80
2015,01,25,07,59,8.70
2015,01,25,08,00,8.70
2015,01,25,08,01,8.70
2015,01,25,08,02,8.70
2015,01,25,08,03,8.70
2015,01,25,08,04,8.70
2015,01,25,08,05,8.70
2015,01,25,08,06,8.60
2015,01,25,08,07,8.60
2015,01,25,08,08,8.60
2015,01,25,08,09,8.60
2015,01,25,08,10,8.60
2015,01,25,08,11,8.60
2015,01,25,08,12,8.60
2015,01,25,08,13,8.60
2015,01,25,08,14,8.60
2015,01,25,08,15,8.60
2015,01,25,08,16,8.60
2015,01,25,08,17,8.60
2015,01,25,08,18,8.60
2015,01,25,08,19,8.60
2015,01,25,08,20,8.60
2015,01,25,08,21,8.60
2015,01,25,08,22,8.50
2015,01,25,08,23,8.60
2015,01,25,08,24,8.60
2015,01,25,08,25,8.60
2015,01,25,08,26,8.70
2015,01,25,08,27,8.70
2015,01,25,08,28,8.70
2015,01,25,08,29,8.70
2015,01,25,08,30,8.70
2015,01,25,08,31,8.70
2015,01,25,08,32,8.70
2015,01,25,08,33,8.70
2015,01,25,08,34,8.70
2015,01,25,08,35,8.70
2015,01,25,08,36,8.70
2015,01,25,08,37,8.70
2015,01,25,08,38,8.70
2015,01,25,08,39,8.70
2015,01,25,08,40,8.70
2015,01,25,08,41,8.70
2015,01,25,08,42,8.60
2015,01,25,08,43,8.60
2015,01,25,08,44,8.60
2015,01,25,08,45,8.60
2015,01,25,08,46,8.60
2015,01,25,08,47,8.50
2015,01,25,08,48,8.50
2015,01,25,08,49,8.50
2015,01,25,08,50,8.50
2015,01,25,08,51,8.50
2015,01,25,08,52,8.50
2015,01,25,08,53,8.50
2015,01,25,08,54,8.60
2015,01,25,08,55,8.60
2015,01,25,08,56,8.60
2015,01,25,08,57,8.70
2015,01,25,08,58,8.70
2015,01,25,08,59,8.70
2015,01,25,09,00,8.70
2015,01,25,09,01,8.80
2015,01,25,09,02,8.80
2015,01,25,09,03,8.80
2015,01,25,09,04,8.80
2015,01,25,09,05,8.90
2015,01,25,09,06,8.90
2015,01,25,09,07,8.90
2015,01,25,09,08,8.90
2015,01,25,09,09,8.90
2015,01,25,09,10,8.90
2015,01,25,09,11,8.90
2015,01,25,09,12,8.80
2015,01,25,09,13,8.90
2015,01,25,09,14,8.90
2015,01,25,09,15,8.90
2015,01,25,09,16,8.90
2015,01,25,09,17,8.90
2015,01,25,09,18,8.90
2015,01,25,09,19,9.00
2015,01,25,09,20,9.00
2015,01,25,09,21,9.00
2015,01,25,09,22,9.10
2015,01,25,09,23,9.10
2015,01,25,09,24,9.10
2015,01,25,09,25,9.10
2015,01,25,09,26,9.10
2015,01,25,09,27,9.10
2015,01,25,09,28,9.10
2015,01,25,09,29,9.10
2015,01,25,09,30,9.10
2015,01,25,09,31,9.10
2015,01,25,09,32,9.10
2015,01,25,09,33,9.10
2015,01,25,09,34,9.10
2015,01,25,09,35,9.10
2015,01,25,09,36,9.20
2015,01,25,09,37,9.20
2015,01,25,09,38,9.20
2015,01,25,09,39,9.30
2015,01,25,09,40,9.30
2015,01,25,09,41,9.30
2015,01,25,09,42,9.30
2015,01,25,09,43,9.40
2015,01,25,09,44,9.40
2015,01,25,09,45,9.40
2015,01,25,09,46,9.40
2015,01,25,09,47,9.40
2015,01,25,09,48,9.50
2015,01,25,09,49,9.50
2015,01,25,09,50,9.50
2015,01,25,09,51,9.60
2015,01,25,09,52,9.60
2015,01,25,09,53,9.60
2015,01,25,09,54,9.60
2015,01,25,09,55,9.60
2015,01,25,09,56,9.60
2015,01,25,09,57,9.70
2015,01,25,09,58,9.70
2015,01,25,09,59,9.70
2015,01,25,10,00,9.70
2015,01,25,10,01,9.80
2015,01,25,10,02,9.80
2015,01,25,10,03,9.80
2015,01,25,10,04,9.80
2015,01,25,10,05,9.80
2015,01,25,10,06,9.80
2015,01,25,10,07,9.80
2015,01,25,10,08,9.90
2015,01,25,10,09,9.90
2015,01,25,10,10,9.90
2015,01,25,10,11,9.90
2015,01,25,10,12,9.90
2015,01,25,10,13,9.90
2015,01,25,10,14,9.90
2015,01,25,10,15,10.00
2015,01,25,10,16,10.00
2015,01,25,10,17,10.00
2015,01,25,10,18,10.00
2015,01,25,10,19,10.10
2015,01,25,10,20,10.10
2015,01,25,10,21,10.10
2015,01,25,10,22,10.10
2015,01,25,10,23,10.20
2015,01,25,10,24,10.20
2015,01,25,10,25,10.20
2015,01,25,10,26,10.20
2015,01,25,10,27,10.30
2015,01,25,10,28,10.30
2015,01,25,10,29,10.30
2015,01,25,10,30,10.40
2015,01,25,10,31,10.40
2015,01,25,10,32,10.50
2015,01,25,10,33,10.50
2015,01,25,10,34,10.60
2015,01,25,10,35,10.60
2015,01,25,10,36,10.70
2015,01,25,10,37,10.80
2015,01,25,10,38,10.80
2015,01,25,10,39,10.90
2015,01,25,10,40,11.00
2015,01,25,10,41,11.00
2015,01,25,10,42,11.10
2015,01,25,10,43,11.20
2015,01,25,10,44,11.30
2015,01,25,10,45,11.30
2015,01,25,10,46,11.40
2015,01,25,10,47,11.50
2015,01,25,10,48,11.50
2015,01,25,10,49,11.60
2015,01,25,10,50,11.60
2015,01,25,10,51,11.60
2015,01,25,10,52,11.60
2015,01,25,10,53,11.60
2015,01,25,10,54,11.60
2015,01,25,10,55,11.60
2015,01,25,10,56,11.70
2015,01,25,10,57,11.70
2015,01,25,10,58,11.80
2015,01,25,10,59,11.80
2015,01,25,11,00,11.90
2015,01,25,11,01,11.90
2015,01,25,11,02,11.90
2015,01,25,11,03,12.00
2015,01,25,11,04,12.00
2015,01,25,11,05,12.00
2015,01,25,11,06,12.10
2015,01,25,11,07,12.10
2015,01,25,11,08,12.10
2015,01,25,11,09,12.10
2015,01,25,11,10,12.10
2015,01,25,11,11,12.10
2015,01,25,11,12,12.10
2015,01,25,11,13,12.10
2015,01,25,11,14,12.20
2015,01,25,11,15,12.20
2015,01,25,11,16,12.20
2015,01,25,11,17,12.20
2015,01,25,11,18,12.20
2015,01,25,11,19,12.20
2015,01,25,11,20,12.10
2015,01,25,11,21,12.10
2015,01,25,11,22,12.10
2015,01,25,11,23,12.10
2015,01,25,11,24,12.20
2015,01,25,11,25,12.20
2015,01,25,11,26,12.10
2015,01,25,11,27,12.20
2015,01,25,11,28,12.20
2015,01,25,11,29,12.20
2015,01,25,11,30,12.20
2015,01,25,11,31,12.30
2015,01,25,11,32,12.30
2015,01,25,11,33,12.30
2015,01,25,11,34,12.30
2015,01,25,11,35,12.30
2015,01,25,11,36,12.30
2015,01,25,11,37,12.30
2015,01,25,11,38,12.20
2015,01,25,11,39,12.20
2015,01,25,11,40,12.20
2015,01,25,11,41,12.20
2015,01,25,11,42,12.20
2015,01,25,11,43,12.20
2015,01,25,11,44,12.30
2015,01,25,11,45,12.30
2015,01,25,11,46,12.30
2015,01,25,11,47,12.30
2015,01,25,11,48,12.40
2015,01,25,11,49,12.40
2015,01,25,11,50,12.40
2015,01,25,11,51,12.50
2015,01,25,11,52,12.50
2015,01,25,11,53,12.60
2015,01,25,11,54,12.60
2015,01,25,11,55,12.60
2015,01,25,11,56,12.60
2015,01,25,11,57,12.60
2015,01,25,11,58,12.60
2015,01,25,11,59,12.60
2015,01,25,12,00,12.60
2015,01,25,12,01,12.60
2015,01,25,12,02,12.60
2015,01,25,12,03,12.60
2015,01,25,12,04,12.60
2015,01,25,12,05,12.50
2015,01,25,12,06,12.50
2015,01,25,12,07,12.50
2015,01,25,12,08,12.50
2015,01,25,12,09,12.50
2015,01,25,12,10,12.40
2015,01,25,12,11,12.40
2015,01,25,12,12,12.40
2015,01,25,12,13,12.40
2015,01,25,12,14,12.50
2015,01,25,12,15,12.50
2015,01,25,12,16,12.50
2015,01,25,12,17,12.60
2015,01,25,12,18,12.60
2015,01,25,12,19,12.60
2015,01,25,12,20,12.60
2015,01,25,12,21,12.60
2015,01,25,12,22,12.60
2015,01,25,12,23,12.60
2015,01,25,12,24,12.60
2015,01,25,12,25,12.60
2015,01,25,12,26,12.60
2015,01,25,12,27,12.60
2015,01,25,12,28,12.60
2015,01,25,12,29,12.60
2015,01,25,12,30,12.60
2015,01,25,12,31,12.70
2015,01,25,12,32,12.70
2015,01,25,12,33,12.70
2015,01,25,12,34,12.70
2015,01,25,12,35,12.80
2015,01,25,12,36,12.80
2015,01,25,12,37,12.80
2015,01,25,12,38,12.80
2015,01,25,12,39,12.80
2015,01,25,12,40,12.80
2015,01,25,12,41,12.80
2015,01,25,12,42,12.80
2015,01,25,12,43,12.80
2015,01,25,12,44,12.80
2015,01,25,12,45,12.80
2015,01,25,12,46,12.80
2015,01,25,12,47,12.80
2015,01,25,12,48,12.80
2015,01,25,12,49,12.80
2015,01,25,12,50,12.80
2015,01,25,12,51,12.80
2015,01,25,12,52,12.80
2015,01,25,12,53,12.80
2015,01,25,12,54,12.80
2015,01,25,12,55,12.70
2015,01,25,12,56,12.70
2015,01,25,12,57,12.70
2015,01,25,12,58,12.70
2015,01,25,12,59,12.70
2015,01,25,13,00,12.70
2015,01,25,13,01,12.70
2015,01,25,13,02,12.70
2015,01,25,13,03,12.70
2015,01,25,13,04,12.70
2015,01,25,13,05,12.70
2015,01,25,13,06,12.70
2015,01,25,13,07,12.70
2015,01,25,13,08,12.70
2015,01,25,13,09,12.70
2015,01,25,13,10,12.70
2015,01,25,13,11,12.80
2015,01,25,13,12,12.80
2015,01,25,13,13,12.70
2015,01,25,13,14,12.80
2015,01,25,13,15,12.70
2015,01,25,13,16,12.70
2015,01,25,13,17,12.70
2015,01,25,13,18,12.70
2015,01,25,13,19,12.70
2015,01,25,13,20,12.70
2015,01,25,13,21,12.70
2015,01,25,13,22,12.70
2015,01,25,13,23,12.70
2015,01,25,13,24,12.70
2015,01,25,13,25,12.70
2015,01,25,13,26,12.70
2015,01,25,13,27,12.70
2015,01,25,13,28,12.70
2015,01,25,13,29,12.70
2015,01,25,13,30,12.70
2015,01,25,13,31,12.70
2015,01,25,13,32,12.60
2015,01,25,13,33,12.60
2015,01,25,13,34,12.60
2015,01,25,13,35,12.60
2015,01,25,13,36,12.60
2015,01,25,13,37,12.60
2015,01,25,13,38,12.60
2015,01,25,13,39,12.60
2015,01,25,13,40,12.60
2015,01,25,13,41,12.60
2015,01,25,13,42,12.60
2015,01,25,13,43,12.60
2015,01,25,13,44,12.60
2015,01,25,13,45,12.60
2015,01,25,13,46,12.60
2015,01,25,13,47,12.60
2015,01,25,13,48,12.60
2015,01,25,13,49,12.60
2015,01,25,13,50,12.60
2015,01,25,13,51,12.70
2015,01,25,13,52,12.70
2015,01,25,13,53,12.70
2015,01,25,13,54,12.70
2015,01,25,13,55,12.70
2015,01,25,13,56,12.70
2015,01,25,13,57,12.70
2015,01,25,13,58,12.70
2015,01,25,13,59,12.70
2015,01,25,14,00,12.70
2015,01,25,14,01,12.70
2015,01,25,14,02,12.70
2015,01,25,14,03,12.80
2015,01,25,14,04,12.80
2015,01,25,14,05,12.80
2015,01,25,14,06,12.80
2015,01,25,14,07,12.80
2015,01,25,14,08,12.80
2015,01,25,14,09,12.80
2015,01,25,14,10,12.80
2015,01,25,14,11,12.80
2015,01,25,14,12,12.80
2015,01,25,14,13,12.80
2015,01,25,14,14,12.80
2015,01,25,14,15,12.80
2015,01,25,14,16,12.80
2015,01,25,14,17,12.80
2015,01,25,14,18,12.80
2015,01,25,14,19,12.80
2015,01,25,14,20,12.90
2015,01,25,14,21,12.90
2015,01,25,14,22,12.90
2015,01,25,14,23,12.90
2015,01,25,14,24,12.90
2015,01,25,14,25,12.90
2015,01,25,14,26,12.90
2015,01,25,14,27,12.90
2015,01,25,14,28,12.90
2015,01,25,14,29,12.90
2015,01,25,14,30,12.90
2015,01,25,14,31,12.90
2015,01,25,14,32,12.90
2015,01,25,14,33,12.90
2015,01,25,14,34,12.90
2015,01,25,14,35,12.90
2015,01,25,14,36,12.90
2015,01,25,14,37,12.90
2015,01,25,14,38,12.90
2015,01,25,14,39,12.90
2015,01,25,14,40,13.00
2015,01,25,14,41,13.00
2015,01,25,14,42,13.00
2015,01,25,14,43,13.00
2015,01,25,14,44,13.00
2015,01,25,14,45,13.00
2015,01,25,14,46,13.00
2015,01,25,14,47,13.00
2015,01,25,14,48,13.00
2015,01,25,14,49,13.00
2015,01,25,14,50,13.00
2015,01,25,14,51,13.00
2015,01,25,14,52,13.00
2015,01,25,14,53,13.10
2015,01,25,14,54,13.10
2015,01,25,14,55,13.10
2015,01,25,14,56,13.10
2015,01,25,14,57,13.10
2015,01,25,14,58,13.10
2015,01,25,14,59,13.10
2015,01,25,15,00,13.10
2015,01,25,15,01,13.10
2015,01,25,15,02,13.10
2015,01,25,15,03,13.10
2015,01,25,15,04,13.10
2015,01,25,15,05,13.10
2015,01,25,15,06,13.10
2015,01,25,15,07,13.10
2015,01,25,15,08,13.10
2015,01,25,15,09,13.10
2015,01,25,15,10,13.10
2015,01,25,15,11,13.10
2015,01,25,15,12,13.00
2015,01,25,15,13,13.10
2015,01,25,15,14,13.00
2015,01,25,15,15,13.00
2015,01,25,15,16,13.00
2015,01,25,15,17,13.00
2015,01,25,15,18,13.00
2015,01,25,15,19,13.00
2015,01,25,15,20,13.00
2015,01,25,15,21,13.00
2015,01,25,15,22,13.00
2015,01,25,15,23,13.00
2015,01,25,15,24,13.00
2015,01,25,15,25,13.00
2015,01,25,15,26,13.00
2015,01,25,15,27,12.90
2015,01,25,15,28,12.90
2015,01,25,15,29,12.90
2015,01,25,15,30,12.90
2015,01,25,15,31,12.90
2015,01,25,15,32,12.90
2015,01,25,15,33,12.90
2015,01,25,15,34,12.90
2015,01,25,15,35,12.90
2015,01,25,15,36,12.90
2015,01,25,15,37,12.90
2015,01,25,15,38,12.90
2015,01,25,15,39,12.90
2015,01,25,15,40,12.90
2015,01,25,15,41,12.90
2015,01,25,15,42,12.90
2015,01,25,15,43,12.90
2015,01,25,15,44,12.90
2015,01,25,15,45,12.90
2015,01,25,15,46,12.90
2015,01,25,15,47,12.90
2015,01,25,15,48,12.90
2015,01,25,15,49,12.90
2015,01,25,15,50,12.80
2015,01,25,15,51,12.80
2015,01,25,15,52,12.80
2015,01,25,15,53,12.80
2015,01,25,15,54,12.80
2015,01,25,15,55,12.80
2015,01,25,15,56,12.80
2015,01,25,15,57,12.80
2015,01,25,15,58,12.70
2015,01,25,15,59,12.70
2015,01,25,16,00,12.70
2015,01,25,16,01,12.70
2015,01,25,16,02,12.70
2015,01,25,16,03,12.60
2015,01,25,16,04,12.60
2015,01,25,16,05,12.60
2015,01,25,16,06,12.60
2015,01,25,16,07,12.60
2015,01,25,16,08,12.50
2015,01,25,16,09,12.50
2015,01,25,16,10,12.50
2015,01,25,16,11,12.50
2015,01,25,16,12,12.50
2015,01,25,16,13,12.40
2015,01,25,16,14,12.40
2015,01,25,16,15,12.40
2015,01,25,16,16,12.40
2015,01,25,16,17,12.40
2015,01,25,16,18,12.40
2015,01,25,16,19,12.40
2015,01,25,16,20,12.30
2015,01,25,16,21,12.30
2015,01,25,16,22,12.30
2015,01,25,16,23,12.30
2015,01,25,16,24,12.30
2015,01,25,16,25,12.30
2015,01,25,16,26,12.20
2015,01,25,16,27,12.20
2015,01,25,16,28,12.20
2015,01,25,16,29,12.20
2015,01,25,16,30,12.20
2015,01,25,16,31,12.20
2015,01,25,16,32,12.20
2015,01,25,16,33,12.10
2015,01,25,16,34,12.10
2015,01,25,16,35,12.10
2015,01,25,16,36,12.10
2015,01,25,16,37,12.10
2015,01,25,16,38,12.10
2015,01,25,16,39,12.10
2015,01,25,16,40,12.00
2015,01,25,16,41,12.00
2015,01,25,16,42,12.00
2015,01,25,16,43,12.00
2015,01,25,16,44,12.00
2015,01,25,16,45,11.90
2015,01,25,16,46,11.90
2015,01,25,16,47,11.90
2015,01,25,16,48,11.90
2015,01,25,16,49,11.90
2015,01,25,16,50,11.80
2015,01,25,16,51,11.80
2015,01,25,16,52,11.80
2015,01,25,16,53,11.80
2015,01,25,16,54,11.80
2015,01,25,16,55,11.80
2015,01,25,16,56,11.80
2015,01,25,16,57,11.70
2015,01,25,16,58,11.70
2015,01,25,16,59,11.70
2015,01,25,17,00,11.70
2015,01,25,17,01,11.70
2015,01,25,17,02,11.70
2015,01,25,17,03,11.70
2015,01,25,17,04,11.70
2015,01,25,17,05,11.70
2015,01,25,17,06,11.70
2015,01,25,17,07,11.70
2015,01,25,17,08,11.70
2015,01,25,17,09,11.70
2015,01,25,17,10,11.70
2015,01,25,17,11,11.70
2015,01,25,17,12,11.70
2015,01,25,17,13,11.70
2015,01,25,17,14,11.60
2015,01,25,17,15,11.60
2015,01,25,17,16,11.60
2015,01,25,17,17,11.60
2015,01,25,17,18,11.60
2015,01,25,17,19,11.60
2015,01,25,17,20,11.60
2015,01,25,17,21,11.60
2015,01,25,17,22,11.50
2015,01,25,17,23,11.50
2015,01,25,17,24,11.50
2015,01,25,17,25,11.50
2015,01,25,17,26,11.50
2015,01,25,17,27,11.40
2015,01,25,17,28,11.40
2015,01,25,17,29,11.40
2015,01,25,17,30,11.30
2015,01,25,17,31,11.30